When you browse on this site, cookies collect data to enhance your experience and personalize the content and advertising you see.
Visit our Privacy Policy to learn more. By continuing to use the site, you agree to this use of cookies and data.
EN

Hourly Weather Kapadvanj

Today, 23 September, Wednesday

Time Temperature Precipitation Wind Pressure Humidity
00:00 +31°C° 0 mm 2 mps 744 mmHg 61%
01:00 +30°C° 0 mm 2 mps 743 mmHg 66%
02:00 +30°C° 0 mm 2 mps 743 mmHg 71%
03:00 +30°C° 0 mm 2 mps 743 mmHg 72%
04:00 +30°C° 0 mm 2 mps 743 mmHg 73%
05:00 +30°C° 0 mm 2 mps 743 mmHg 83%
06:00 +30°C° 0.2 mm 2 mps 744 mmHg 82%
07:00 +31°C° 0.2 mm 1 mps 744 mmHg 81%
08:00 +31°C° 0.2 mm 1 mps 745 mmHg 80%
09:00 +32°C° 0.1 mm 2 mps 745 mmHg 73%
10:00 +35°C° 0.1 mm 2 mps 745 mmHg 67%
11:00 +36°C° 0 mm 3 mps 746 mmHg 59%
12:00 +37°C° 0.1 mm 3 mps 745 mmHg 58%
13:00 +37°C° 0.1 mm 4 mps 744 mmHg 56%
14:00 +38°C° 0.1 mm 4 mps 744 mmHg 55%
15:00 +37°C° 0.2 mm 4 mps 744 mmHg 58%
16:00 +37°C° 0.2 mm 3 mps 743 mmHg 61%
17:00 +35°C° 0 mm 3 mps 743 mmHg 66%
18:00 +34°C° 0.1 mm 3 mps 744 mmHg 68%
19:00 +33°C° 0.1 mm 3 mps 745 mmHg 69%
20:00 +31°C° 0.1 mm 3 mps 745 mmHg 70%
21:00 +32°C° 0 mm 4 mps 745 mmHg 72%
22:00 +32°C° 0 mm 4 mps 745 mmHg 74%
23:00 +30°C° 0 mm 4 mps 745 mmHg 76%

Tomorrow, 24 September, Thursday

Time Temperature Precipitation Wind Pressure Humidity
00:00 +30°C° 0 mm 4 mps 745 mmHg 78%
01:00 +30°C° 0 mm 3 mps 745 mmHg 81%
02:00 +29°C° 0 mm 2 mps 745 mmHg 83%
03:00 +29°C° 0 mm 2 mps 745 mmHg 84%
04:00 +29°C° 0 mm 2 mps 746 mmHg 86%
05:00 +28°C° 0 mm 2 mps 746 mmHg 87%
06:00 +29°C° 0 mm 3 mps 747 mmHg 84%
07:00 +30°C° 0 mm 3 mps 747 mmHg 82%
08:00 +30°C° 0 mm 3 mps 748 mmHg 79%
09:00 +33°C° 0 mm 3 mps 748 mmHg 72%
10:00 +34°C° 0 mm 3 mps 748 mmHg 65%
11:00 +36°C° 0 mm 4 mps 748 mmHg 57%
12:00 +36°C° 0 mm 4 mps 747 mmHg 54%
13:00 +37°C° 0 mm 3 mps 747 mmHg 51%
14:00 +38°C° 0 mm 3 mps 746 mmHg 48%
15:00 +37°C° 0 mm 3 mps 746 mmHg 51%
16:00 +37°C° 0 mm 3 mps 746 mmHg 53%
17:00 +36°C° 0 mm 2 mps 746 mmHg 56%
18:00 +35°C° 0 mm 2 mps 746 mmHg 58%
19:00 +34°C° 0 mm 2 mps 747 mmHg 59%
20:00 +32°C° 0 mm 2 mps 747 mmHg 61%
21:00 +31°C° 0 mm 2 mps 747 mmHg 66%
22:00 +30°C° 0 mm 3 mps 747 mmHg 71%
23:00 +30°C° 0 mm 3 mps 748 mmHg 76%

Day after tomorrow, 25 September, Friday

Time Temperature Precipitation Wind Pressure Humidity
00:00 +30°C° 0 mm 3 mps 747 mmHg 79%
01:00 +29°C° 0 mm 3 mps 747 mmHg 82%
02:00 +29°C° 0 mm 3 mps 747 mmHg 85%
03:00 +29°C° 0 mm 3 mps 747 mmHg 86%
04:00 +29°C° 0 mm 2 mps 747 mmHg 86%
05:00 +28°C° 0 mm 2 mps 747 mmHg 86%
06:00 +29°C° 0 mm 2 mps 747 mmHg 84%
07:00 +30°C° 0 mm 2 mps 748 mmHg 82%
08:00 +30°C° 0 mm 3 mps 748 mmHg 80%
09:00 +33°C° 0 mm 3 mps 748 mmHg 74%
10:00 +34°C° 0 mm 3 mps 748 mmHg 69%
11:00 +35°C° 0 mm 3 mps 748 mmHg 64%
12:00 +35°C° 0 mm 3 mps 747 mmHg 61%
13:00 +36°C° 0 mm 3 mps 747 mmHg 59%
14:00 +36°C° 0 mm 3 mps 746 mmHg 57%
15:00 +36°C° 0 mm 3 mps 746 mmHg 59%
16:00 +36°C° 0 mm 3 mps 746 mmHg 61%
17:00 +35°C° 0 mm 2 mps 745 mmHg 62%
18:00 +34°C° 0 mm 3 mps 746 mmHg 65%
19:00 +33°C° 0 mm 3 mps 746 mmHg 68%
20:00 +31°C° 0 mm 3 mps 747 mmHg 71%
21:00 +30°C° 0 mm 3 mps 747 mmHg 75%
22:00 +30°C° 0 mm 3 mps 747 mmHg 78%
23:00 +29°C° 0 mm 3 mps 747 mmHg 82%

26 September, Saturday

Time Temperature Precipitation Wind Pressure Humidity
00:00 +29°C° 0.1 mm 3 mps 747 mmHg 83%
01:00 +29°C° 0.1 mm 3 mps 747 mmHg 84%
02:00 +28°C° 0.1 mm 3 mps 747 mmHg 86%
03:00 +28°C° 0.2 mm 3 mps 747 mmHg 87%
04:00 +28°C° 0.2 mm 3 mps 747 mmHg 87%
05:00 +27°C° 0.2 mm 3 mps 747 mmHg 88%
06:00 +27°C° 1.2 mm 4 mps 747 mmHg 89%
07:00 +27°C° 1.2 mm 4 mps 748 mmHg 89%
08:00 +27°C° 1.2 mm 5 mps 748 mmHg 89%
09:00 +27°C° 0.6 mm 4 mps 748 mmHg 86%
10:00 +28°C° 0.6 mm 4 mps 748 mmHg 83%
11:00 +28°C° 0.6 mm 3 mps 748 mmHg 80%
12:00 +30°C° 0 mm 3 mps 747 mmHg 73%
13:00 +33°C° 0 mm 3 mps 747 mmHg 65%
14:00 +34°C° 0 mm 4 mps 746 mmHg 57%
15:00 +34°C° 0 mm 3 mps 746 mmHg 59%
16:00 +33°C° 0 mm 3 mps 746 mmHg 61%
17:00 +33°C° 0 mm 3 mps 746 mmHg 64%
18:00 +31°C° 0 mm 3 mps 746 mmHg 66%
19:00 +30°C° 0 mm 3 mps 747 mmHg 67%
20:00 +30°C° 0 mm 3 mps 747 mmHg 69%
21:00 +29°C° 0 mm 3 mps 748 mmHg 71%
22:00 +29°C° 0 mm 3 mps 748 mmHg 73%
23:00 +29°C° 0 mm 3 mps 748 mmHg 75%

27 September, Sunday

Time Temperature Precipitation Wind Pressure Humidity
00:00 +28°C° 0 mm 3 mps 748 mmHg 76%
01:00 +28°C° 0 mm 3 mps 747 mmHg 78%
02:00 +27°C° 0 mm 3 mps 747 mmHg 79%
03:00 +27°C° 0 mm 3 mps 747 mmHg 82%
04:00 +27°C° 0 mm 2 mps 747 mmHg 84%
05:00 +26°C° 0 mm 2 mps 748 mmHg 87%
06:00 +27°C° 0 mm 2 mps 748 mmHg 83%
07:00 +28°C° 0 mm 3 mps 749 mmHg 79%
08:00 +28°C° 0 mm 3 mps 749 mmHg 75%
09:00 +29°C° 0 mm 3 mps 749 mmHg 70%
10:00 +31°C° 0 mm 3 mps 749 mmHg 66%
11:00 +33°C° 0 mm 3 mps 749 mmHg 61%
12:00 +33°C° 0 mm 3 mps 749 mmHg 57%
13:00 +34°C° 0 mm 3 mps 748 mmHg 53%
14:00 +35°C° 0 mm 3 mps 747 mmHg 50%
15:00 +35°C° 0 mm 3 mps 747 mmHg 51%
16:00 +34°C° 0 mm 3 mps 747 mmHg 51%
17:00 +34°C° 0 mm 2 mps 747 mmHg 52%
18:00 +32°C° 0 mm 2 mps 747 mmHg 53%
19:00 +30°C° 0 mm 2 mps 748 mmHg 54%
20:00 +29°C° 0 mm 1 mps 748 mmHg 54%
21:00 +28°C° 0 mm 1 mps 748 mmHg 58%
22:00 +28°C° 0 mm 1 mps 749 mmHg 62%
23:00 +27°C° 0 mm 2 mps 749 mmHg 65%

28 September, Monday

Time Temperature Precipitation Wind Pressure Humidity
00:00 +27°C° 0 mm 2 mps 748 mmHg 71%
01:00 +26°C° 0 mm 2 mps 748 mmHg 76%
02:00 +26°C° 0 mm 2 mps 748 mmHg 82%
03:00 +26°C° 0 mm 2 mps 748 mmHg 82%
04:00 +26°C° 0 mm 2 mps 748 mmHg 83%
05:00 +26°C° 0 mm 2 mps 749 mmHg 84%
06:00 +26°C° 0 mm 2 mps 749 mmHg 82%
07:00 +27°C° 0 mm 3 mps 750 mmHg 79%
08:00 +28°C° 0 mm 3 mps 750 mmHg 77%
09:00 +30°C° 0 mm 3 mps 750 mmHg 69%
10:00 +31°C° 0 mm 3 mps 750 mmHg 62%
11:00 +33°C° 0 mm 3 mps 750 mmHg 54%
12:00 +34°C° 0 mm 3 mps 750 mmHg 50%
13:00 +34°C° 0 mm 3 mps 749 mmHg 47%
14:00 +35°C° 0 mm 3 mps 748 mmHg 43%
15:00 +34°C° 0 mm 2 mps 748 mmHg 46%
16:00 +34°C° 0 mm 2 mps 748 mmHg 48%
17:00 +32°C° 0 mm 2 mps 748 mmHg 51%
18:00 +31°C° 0 mm 2 mps 748 mmHg 53%
19:00 +30°C° 0 mm 1 mps 749 mmHg 55%
20:00 +29°C° 0 mm 1 mps 749 mmHg 57%
21:00 +28°C° 0 mm 1 mps 749 mmHg 60%
22:00 +28°C° 0 mm 2 mps 749 mmHg 63%
23:00 +27°C° 0 mm 2 mps 750 mmHg 66%
Show more